Weather in Bucha

Ukraine / Kyiv Region     50°33′12″N   30°12′48″E
В апреле 2022 года жителям России запретили посещать сайт meteo.paraplan.net по решению Генеральной прокуратуры. Аудитория сайта уменьшилась в 10 раз. Владельцы сайта не видят смысла в поддержке погодного сервера в таких условиях. Сайт будет закрыт в октябре.
temp.,
°C
wind,
m/s
gust,
m/s
humid.,
%
clouds,
%
prec.,
mm/h
press.,
hPa
HPBL,
m
4 october, tue
tue400:00+7w71289100 0.7 10041033
03:00+6w61188100 2.2 10051011
06:00+6w4992100 1.4 10061053
09:00+7w61090100 2.4 10081167
12:00+8w61183100 0.5 10101146
15:00+9w61183100 0.8 10111384
18:00+9w51184100 0.6 10131130
21:00+9w4992100 1.6 1015591
5 october, wed
wed500:00+9w61289100 0.7 1017605
03:00+8w6139333 0.8 1018516
06:00+7w5119536 0.0 1020443
09:00+8w51090100 0.0 1022473
12:00+11wnw6876100 0.0 1023908
15:00+13wnw576698 0.1 10241126
18:00+12w3672100 0.0 1024326
21:00+11wsw3979100 0.0 1024237
6 october, thu
thu600:00+10wsw3982100 0.0 1024246
03:00+10sw3882100 0.0 1024206
06:00+9wsw3982100 0.0 1024211
09:00+11wsw4107445 0.0 1024282
12:00+16wsw585529 0.0 1024593
15:00+18w575030 0.0 1023912
18:00+15w386840 0.0 1023308
21:00+12w3108244 0.0 1024243
7 october, fri
fri700:00+11w3108883 0.0 1025229
03:00+11wnw3109328 0.0 1026243
06:00+10nw4119510 0.0 1027359
09:00+11nnw49875 0.0 1029359
12:00+15nnw45545 0.0 1029729
15:00+17nnw34454 0.0 1028997
18:00+14n236522 0.0 102890
21:00+11nne22764 0.0 102818
8 october, sat
sat800:00+10ene11830 0.0 102810
03:00+9se11850 0.0 102714
06:00+8sse22880 0.0 102626
09:00+10sse24795 0.0 1025165
12:00+15sse34535 0.0 1024651
15:00+17s23435 0.0 10221006
18:00+14ssw22575 0.0 102124
21:00+12ssw236696 0.0 102139